(110) Lydia
ephemeris date magn radius delta ra dec elong phase
Opposition21 Aug 202511.12.519 AU1.517 AU22h21m-20°54'170.0°4.0°
Today31 Aug 202511.22.518 AU1.527 AU22h12m-21°33'166.0°5.6°
(110) Lydia - 2025-08-31
astro.vanbuitenen.nl


 
-1 year
-1 month
-1 day
Now
+1 day
+1 month
+1 year

The interactive orbit chart above shows the body's path through the solar system and its position at the given date. Green and blue lines are shown perpendicular to the ecliptic plane: Green if the path is above the ecliptic plane, blue if it is below. (Left-click and drag to rotate the view; Right-click and drag to move the view; Use scroll wheel to zoom in our out.)

The orbital elements of Lydia are:

            e (Eccentricity)                : 0.0792773
            a (Semimajor axis)              : 2.7332330
            i (Inclination)                 : 5.95939
            Ω (Longitude of ascending node) : 56.76763
            ω (Argument of perihelion)      : 282.23393
            M (Mean anomaly)                : 327.84122
            Epoch                           : 2025 May 05

            L (Longitude of perihelion)     : -20.93398
            B (Latitude of perihelion)      : -5.82358
            P (Orbital period in years)     : 4.52            
        

The light curve chart below shows the estimated development of the minor planet's magnitude.


The all-sky chart below shows the path of the minor planet over the same period as the light curve. The current position is marked yellow.





The following chart shows the path of the minor planet in the next few days. The field of view is optimized for (~10x50) binoculars and finderscopes. A more printer-friendly version of the same chart can be found below.




Ephemerides:
Date       Time       RA (2000)    DEC (2000)    delta   radius  elong  phase   PA    magn
2025-08-31 00:00 UT   22 12 58.2   -21 33 53     1.527    2.518  166.0    5.6    25   11.2 
2025-08-31 04:26 UT   22 12 48.6   -21 34 30     1.527    2.518  165.8    5.6    26   11.2 
2025-09-01 00:00 UT   22 12 06.8   -21 37 13     1.529    2.518  165.1    5.9    28   11.2 
2025-09-02 00:00 UT   22 11 16.0   -21 40 23     1.532    2.518  164.2    6.3    31   11.3 
2025-09-03 00:00 UT   22 10 25.6   -21 43 23     1.535    2.518  163.3    6.6    34   11.3 
2025-09-04 00:00 UT   22 09 35.9   -21 46 13     1.538    2.518  162.4    7.0    36   11.3 
2025-09-05 00:00 UT   22 08 46.8   -21 48 52     1.541    2.518  161.4    7.3    38   11.3 
2025-09-06 00:00 UT   22 07 58.5   -21 51 20     1.545    2.518  160.4    7.7    40   11.3 
2025-09-07 00:00 UT   22 07 10.9   -21 53 37     1.549    2.517  159.4    8.1    42   11.4 
2025-09-08 00:00 UT   22 06 24.1   -21 55 44     1.553    2.517  158.4    8.5    44   11.4 
2025-09-09 00:00 UT   22 05 38.3   -21 57 40     1.557    2.517  157.4    8.8    45   11.4 
2025-09-10 00:00 UT   22 04 53.3   -21 59 24     1.562    2.517  156.4    9.2    47   11.4 
2025-09-11 00:00 UT   22 04 09.4   -22 00 57     1.567    2.517  155.4    9.6    48   11.5 
2025-09-12 00:00 UT   22 03 26.5   -22 02 19     1.572    2.517  154.3   10.0    49   11.5 
2025-09-13 00:00 UT   22 02 44.8   -22 03 30     1.577    2.517  153.3   10.4    50   11.5 
2025-09-14 00:00 UT   22 02 04.1   -22 04 30     1.583    2.517  152.2   10.7    51   11.5 
2025-09-15 00:00 UT   22 01 24.7   -22 05 18     1.589    2.517  151.2   11.1    52   11.5 
2025-09-16 00:00 UT   22 00 46.5   -22 05 55     1.595    2.517  150.2   11.5    53   11.6 
2025-09-17 00:00 UT   22 00 09.6   -22 06 20     1.601    2.517  149.1   11.8    54   11.6 
2025-09-18 00:00 UT   21 59 34.0   -22 06 34     1.607    2.517  148.1   12.2    54   11.6 
2025-09-19 00:00 UT   21 58 59.7   -22 06 37     1.614    2.517  147.0   12.5    55   11.6 
2025-09-20 00:00 UT   21 58 26.9   -22 06 28     1.621    2.517  146.0   12.9    56   11.7 
2025-09-21 00:00 UT   21 57 55.5   -22 06 08     1.628    2.517  145.0   13.2    56   11.7 
2025-09-22 00:00 UT   21 57 25.6   -22 05 37     1.635    2.517  143.9   13.6    57   11.7 
2025-09-23 00:00 UT   21 56 57.3   -22 04 55     1.642    2.517  142.9   13.9    58   11.7 
2025-09-24 00:00 UT   21 56 30.4   -22 04 02     1.650    2.517  141.9   14.3    58   11.7 
2025-09-25 00:00 UT   21 56 05.1   -22 02 57     1.658    2.517  140.8   14.6    59   11.8 
2025-09-26 00:00 UT   21 55 41.4   -22 01 42     1.666    2.517  139.8   14.9    59   11.8 
2025-09-27 00:00 UT   21 55 19.3   -22 00 16     1.674    2.517  138.8   15.2    60   11.8 
2025-09-28 00:00 UT   21 54 58.8   -21 58 40     1.682    2.517  137.8   15.5    60   11.8 
2025-09-29 00:00 UT   21 54 39.9   -21 56 52     1.691    2.517  136.8   15.8    61   11.8 
2025-09-30 00:00 UT   21 54 22.7   -21 54 55     1.700    2.517  135.8   16.1    61   11.9 


    Terminology:
            
    delta:  distance between minor planet and earth in AU
    radius: distance between minor planet and sun in AU
    magn:   magnitude (brightness) estimate    
    ra:     right ascension in hours (24h = 360deg)
    dec:    declination in degrees
    elong:  elongation in degrees (angle sun-earth-minor planet)    
    phase:  phase angle in degrees (angle sun-minor planet-earth)        
    AU:     Astronomical Unit (mean distance between earth and sun: 149597870.7 km
    

Orbital elements provided by the MPC (Minor Planet Center).
Calculations by a modified version of AAPlus, a C# implementation of the AA+ project by PJ Naughter from the algorithms presented in the book "Astronomical Algorithms" by Jean Meeus.
NGC2000 dso catalog and star labels from VizieR as provided by the Strasbourg astronomical Data Center.
Tycho2 catalog from the ESO archive.